This is the latest recevied weather packets stored in our database for station/object KM6YFK-13. If no packets are shown the sender has not sent any weather packets the latest 10 day(s).
| Time | Temp. | Humidity | Pressure | Rain* | Wind** | Luminosity | Snow |
|---|---|---|---|---|---|---|---|
| 1777389507 | 25.56° C | 71% | 1021 hPa | 0 mm | - | 856 W/m² | - |
| 1777389208 | 25.56° C | 70% | 1021 hPa | 0 mm | - | 777 W/m² | - |
| 1777388908 | 25.56° C | 71% | 1021 hPa | 0 mm | - | 811 W/m² | - |
| 1777388608 | 26.11° C | 70% | 1021 hPa | 0 mm | - | 671 W/m² | - |
| 1777388308 | 25.56° C | 71% | 1020.9 hPa | 0 mm | - | 813 W/m² | - |
| 1777388008 | 25.56° C | 71% | 1020.8 hPa | 0 mm | - | 774 W/m² | - |
| 1777387709 | 25.56° C | 71% | 1020.7 hPa | 0 mm | - | 755 W/m² | - |
| 1777387408 | 25.56° C | 71% | 1020.7 hPa | 0 mm | - | 742 W/m² | - |
| 1777387110 | 25.56° C | 72% | 1020.8 hPa | 0 mm | - | 720 W/m² | - |
| 1777386808 | 25.56° C | 71% | 1020.8 hPa | 0 mm | - | 698 W/m² | - |
| 1777386508 | 25.56° C | 71% | 1020.8 hPa | 0 mm | - | 686 W/m² | - |
| 1777386208 | 25.56° C | 71% | 1020.8 hPa | 0 mm | - | 673 W/m² | - |
| 1777385908 | 25° C | 73% | 1020.7 hPa | 0 mm | - | 649 W/m² | - |
| 1777385607 | 25° C | 71% | 1020.7 hPa | 0 mm | - | 629 W/m² | - |
| 1777385310 | 25.56° C | 71% | 1020.5 hPa | 0 mm | - | 613 W/m² | - |
| 1777385008 | 25.56° C | 71% | 1020.4 hPa | 0 mm | - | 601 W/m² | - |
| 1777384709 | 25.56° C | 72% | 1020.3 hPa | 0 mm | - | 575 W/m² | - |
| 1777384408 | 25° C | 74% | 1020.4 hPa | 0 mm | - | 559 W/m² | - |
| 1777384108 | 25° C | 73% | 1020.3 hPa | 0 mm | - | 540 W/m² | - |
| 1777383808 | 24.44° C | 73% | 1020.3 hPa | 0 mm | - | 518 W/m² | - |
| 1777383509 | 24.44° C | 72% | 1020.2 hPa | 0 mm | - | 502 W/m² | - |
| 1777383208 | 24.44° C | 73% | 1020.2 hPa | 0 mm | - | 483 W/m² | - |
| 1777382908 | 25° C | 73% | 1020.2 hPa | 0 mm | - | 464 W/m² | - |
| 1777382608 | 24.44° C | 74% | 1020.2 hPa | 0 mm | - | 446 W/m² | - |
| 1777382308 | 24.44° C | 75% | 1020.2 hPa | 0 mm | - | 428 W/m² | - |
* Rain latest hour (hover to see other rain measurements)
** Current wind speed in m/s (hover to see current wind gust speed)